TimeCST,TemperatureF,Dew PointF,Humidity,Sea Level PressureIn,VisibilityMPH,Wind Direction,Wind SpeedMPH,Gust SpeedMPH,PrecipitationIn,Events,Conditions,WindDirDegrees,DateUTC
12:15 AM,33.8,30.2,87,29.89,10.0,North,32.2,61.0,N/A,,Overcast,10,2012-12-26 06:15:00
12:35 AM,33.8,30.2,87,29.86,10.0,North,31.1,72.5,N/A,,Overcast,10,2012-12-26 06:35:00
12:55 AM,33.8,30.2,87,29.87,10.0,North,26.5,46.0,N/A,Snow,Light Snow,10,2012-12-26 06:55:00
1:15 AM,32.0,30.2,93,29.86,4.0,North,25.3,34.5,N/A,Snow,Light Snow,360,2012-12-26 07:15:00
1:35 AM,33.8,30.2,87,29.86,7.0,North,17.3,42.6,N/A,Snow,Light Snow,10,2012-12-26 07:35:00
1:55 AM,33.8,32.0,93,29.86,7.0,North,18.4,27.6,N/A,Snow,Light Snow,10,2012-12-26 07:55:00
2:15 AM,33.8,32.0,93,29.85,7.0,North,23.0,29.9,N/A,Snow,Light Snow,10,2012-12-26 08:15:00
2:35 AM,33.8,32.0,93,29.84,10.0,North,25.3,31.1,N/A,Snow,Light Snow,360,2012-12-26 08:35:00
2:55 AM,33.8,32.0,93,29.84,10.0,North,21.9,46.0,N/A,Snow,Light Snow,360,2012-12-26 08:55:00
3:15 AM,32.0,32.0,100,29.83,10.0,North,27.6,38.0,N/A,Snow,Light Snow,350,2012-12-26 09:15:00
3:35 AM,32.0,32.0,100,29.82,7.0,North,24.2,33.4,N/A,Snow,Light Snow,350,2012-12-26 09:35:00
3:55 AM,32.0,32.0,100,29.81,10.0,North,27.6,40.3,N/A,Snow,Light Snow,360,2012-12-26 09:55:00
4:15 AM,32.0,32.0,100,29.81,10.0,North,24.2,38.0,N/A,Snow,Light Snow,350,2012-12-26 10:15:00
4:35 AM,32.0,30.2,93,29.82,7.0,North,27.6,50.6,N/A,Snow,Light Snow,350,2012-12-26 10:35:00
4:55 AM,32.0,30.2,93,29.82,5.0,North,19.6,41.4,N/A,Snow,Light Snow,350,2012-12-26 10:55:00
5:15 AM,32.0,30.2,93,29.83,10.0,North,31.1,65.6,N/A,Snow,Light Snow,350,2012-12-26 11:15:00
5:35 AM,30.2,30.2,100,29.83,10.0,North,25.3,43.7,N/A,Snow,Light Snow,350,2012-12-26 11:35:00
5:55 AM,30.2,30.2,100,29.84,4.0,North,24.2,36.8,N/A,Snow,Light Snow,350,2012-12-26 11:55:00
6:15 AM,30.2,30.2,100,29.84,3.0,North,21.9,36.8,N/A,Snow,Light Snow,350,2012-12-26 12:15:00
6:35 AM,30.2,30.2,100,29.84,10.0,NNW,16.1,34.5,N/A,Snow,Light Snow,340,2012-12-26 12:35:00
6:55 AM,30.2,30.2,100,29.85,4.0,NNW,20.7,27.6,N/A,Snow,Light Snow,340,2012-12-26 12:55:00
7:15 AM,30.2,30.2,100,29.85,10.0,North,19.6,29.9,N/A,Snow,Light Snow,350,2012-12-26 13:15:00
7:35 AM,30.2,30.2,100,29.87,10.0,North,21.9,36.8,N/A,Snow,Light Snow,350,2012-12-26 13:35:00
7:55 AM,30.2,30.2,100,29.87,5.0,NNW,18.4,25.3,N/A,Snow,Light Snow,340,2012-12-26 13:55:00
8:15 AM,30.2,30.2,100,29.87,5.0,NNW,19.6,28.8,N/A,Snow,Light Snow,330,2012-12-26 14:15:00
8:35 AM,30.2,30.2,100,29.88,10.0,NNW,19.6,29.9,N/A,Snow,Light Snow,340,2012-12-26 14:35:00
8:55 AM,30.2,30.2,100,29.90,10.0,NNW,19.6,38.0,N/A,,Overcast,330,2012-12-26 14:55:00
9:15 AM,32.0,30.2,93,29.91,10.0,NNW,26.5,46.0,N/A,,Overcast,340,2012-12-26 15:15:00
9:35 AM,32.0,30.2,93,29.92,10.0,NNW,20.7,31.1,N/A,,Overcast,330,2012-12-26 15:35:00
9:55 AM,30.2,30.2,100,29.93,10.0,NNW,20.7,39.1,N/A,,Overcast,330,2012-12-26 15:55:00
10:15 AM,32.0,30.2,93,29.95,10.0,NNW,21.9,38.0,N/A,,Overcast,330,2012-12-26 16:15:00
10:35 AM,32.0,30.2,93,29.95,10.0,NNW,26.5,47.2,N/A,,Overcast,340,2012-12-26 16:35:00
10:55 AM,32.0,30.2,93,29.96,10.0,NNW,21.9,46.0,N/A,,Overcast,330,2012-12-26 16:55:00
11:15 AM,32.0,30.2,93,29.96,10.0,NW,18.4,52.9,N/A,,Overcast,320,2012-12-26 17:15:00
11:35 AM,30.2,28.4,93,29.96,10.0,NW,26.5,65.6,N/A,,Overcast,320,2012-12-26 17:35:00
11:55 AM,30.2,28.4,93,29.97,10.0,NW,19.6,63.3,N/A,,Overcast,320,2012-12-26 17:55:00
12:15 PM,32.0,30.2,93,29.97,10.0,NNW,28.8,38.0,N/A,,Overcast,330,2012-12-26 18:15:00
12:35 PM,32.0,28.4,87,29.97,10.0,NNW,33.4,49.5,N/A,,Overcast,330,2012-12-26 18:35:00
12:55 PM,33.8,30.2,87,29.97,10.0,NW,26.5,39.1,N/A,,Overcast,320,2012-12-26 18:55:00
1:15 PM,33.8,28.4,81,29.97,10.0,NNW,21.9,51.8,N/A,,Overcast,330,2012-12-26 19:15:00
1:35 PM,33.8,28.4,81,29.98,10.0,NW,25.3,35.7,N/A,,Overcast,320,2012-12-26 19:35:00
1:55 PM,33.8,30.2,87,29.99,10.0,NNW,17.3,38.0,N/A,,Overcast,330,2012-12-26 19:55:00
2:15 PM,33.8,30.2,87,30.00,10.0,NW,18.4,33.4,N/A,,Overcast,320,2012-12-26 20:15:00
2:35 PM,33.8,28.4,81,30.01,10.0,NW,16.1,34.5,N/A,,Overcast,320,2012-12-26 20:35:00
2:55 PM,33.8,30.2,87,30.03,10.0,NW,16.1,35.7,N/A,,Overcast,310,2012-12-26 20:55:00
3:15 PM,33.8,28.4,81,30.04,10.0,NW,17.3,39.1,N/A,,Overcast,310,2012-12-26 21:15:00
3:35 PM,33.8,28.4,81,30.04,10.0,NW,17.3,41.4,N/A,,Overcast,310,2012-12-26 21:35:00
3:55 PM,33.8,28.4,81,30.06,10.0,NW,21.9,49.5,N/A,,Overcast,320,2012-12-26 21:55:00
4:15 PM,33.8,28.4,81,30.06,10.0,NW,17.3,38.0,N/A,,Overcast,310,2012-12-26 22:15:00
4:35 PM,32.0,28.4,87,30.06,10.0,NW,12.7,33.4,N/A,,Overcast,320,2012-12-26 22:35:00
4:55 PM,32.0,28.4,87,30.07,10.0,NW,20.7,38.0,N/A,,Overcast,320,2012-12-26 22:55:00
5:15 PM,32.0,26.6,80,30.08,10.0,NW,19.6,33.4,N/A,,Overcast,310,2012-12-26 23:15:00
5:35 PM,32.0,26.6,80,30.09,10.0,NW,15.0,29.9,N/A,,Overcast,320,2012-12-26 23:35:00
5:55 PM,32.0,26.6,80,30.10,10.0,NW,13.8,29.9,N/A,,Overcast,310,2012-12-26 23:55:00
6:15 PM,30.2,28.4,93,30.10,10.0,WNW,11.5,19.6,N/A,,Overcast,300,2012-12-27 00:15:00
6:35 PM,-9999,-9999,N/A,30.11,10.0,NW,10.4,20.7,N/A,,Overcast,310,2012-12-27 00:35:00
6:55 PM,30.2,28.4,93,30.11,10.0,NW,10.4,20.7,N/A,,Overcast,320,2012-12-27 00:55:00
7:15 PM,30.2,28.4,93,30.11,10.0,NW,10.4,19.6,N/A,,Overcast,310,2012-12-27 01:15:00
7:35 PM,30.2,28.4,93,30.13,10.0,NW,11.5,16.1,N/A,,Overcast,310,2012-12-27 01:35:00
7:55 PM,30.2,26.6,86,30.13,10.0,NW,12.7,19.6,N/A,,Overcast,310,2012-12-27 01:55:00
8:15 PM,30.2,26.6,86,30.14,10.0,NW,9.2,-,N/A,,Overcast,310,2012-12-27 02:15:00
8:35 PM,30.2,26.6,86,30.13,10.0,NW,10.4,17.3,N/A,,Overcast,310,2012-12-27 02:35:00
8:55 PM,30.2,26.6,86,30.14,10.0,NW,10.4,16.1,N/A,,Overcast,310,2012-12-27 02:55:00
9:15 PM,30.2,26.6,86,30.13,10.0,NW,10.4,17.3,N/A,,Overcast,320,2012-12-27 03:15:00
9:35 PM,30.2,26.6,86,30.14,10.0,NW,9.2,-,N/A,,Overcast,310,2012-12-27 03:35:00
9:55 PM,30.2,28.4,93,30.15,10.0,WNW,8.1,-,N/A,,Overcast,300,2012-12-27 03:55:00
10:35 PM,30.2,26.6,86,30.15,10.0,WNW,9.2,-,N/A,,Overcast,300,2012-12-27 04:35:00
10:55 PM,30.2,26.6,86,30.16,10.0,WNW,10.4,-,N/A,,Overcast,300,2012-12-27 04:55:00
11:15 PM,30.2,26.6,86,30.17,10.0,WNW,11.5,20.7,N/A,,Overcast,300,2012-12-27 05:15:00
11:35 PM,30.2,26.6,86,30.17,10.0,WNW,6.9,16.1,N/A,,Overcast,300,2012-12-27 05:35:00
11:55 PM,28.4,26.6,93,30.16,10.0,NW,6.9,-,N/A,,Overcast,310,2012-12-27 05:55:00